Simultaneous Nadir Overpasses (SNOs) Predictions

Prediction of SNOs between AQUA and METOP-B Satellite Orbit:

Table of predicted SNOs for the next 14.0 days since TLE Epoch: 4/22/2023
Index Date (AQUA) Time (AQUA) Lat,Lon (AQUA) SZA (AQUA ) Date (METOP-B) Time (METOP-B) Lat,Lon (METOP-B) SZA (METOP-B ) Distance(km) Time Diff (sec)
1 04/24/2023 19:43:35 74.40,-120.28 61.37 04/24/2023 19:43:11 74.42,-120.30 61.39 1.91 24
2 04/24/2023 20:33:01 -74.49, 47.14 118.54 04/24/2023 20:33:51 -74.49, 47.23 118.55 2.76 50
3 04/27/2023 13:36:35 74.41, -28.51 60.49 04/27/2023 13:36:11 74.39, -28.62 60.48 3.47 24
4 04/27/2023 14:26:01 -74.50, 138.91 119.43 04/27/2023 14:26:51 -74.47, 138.92 119.46 2.65 50
5 04/30/2023 07:29:33 74.44, 63.19 59.66 04/30/2023 07:29:08 74.45, 63.29 59.68 3.10 25
6 04/30/2023 08:18:58 -74.48,-129.25 120.31 04/30/2023 08:19:49 -74.49,-129.29 120.30 1.56 51
7 05/03/2023 01:22:30 74.45, 154.95 58.85 05/03/2023 01:22:07 74.45, 155.03 58.84 2.24 23
8 05/03/2023 02:11:55 -74.49, -37.48 121.13 05/03/2023 02:12:48 -74.49, -37.54 121.13 1.78 53
9 05/05/2023 19:15:25 74.44,-113.22 58.04 05/05/2023 19:15:06 74.43,-113.26 58.03 1.54 19
10 05/05/2023 20:04:51 -74.52, 54.22 121.89 05/05/2023 20:05:46 -74.52, 54.30 121.90 2.39 55



Historial Predications of SNOs between AQUA and METOP-B
